Date String (YYYY-MM-DD hh:mm:ss) UTC,Instrument flags,Ambient pressure (hPa),Sample flow (lpm),Bypass flow (lpm),Sample temperature (°C),Ambient temperature (°C),ASC tube jacket temperature (°C),LED temperature (°C),Box temperature (°C),Sample RH (%),Span deviation,Mass concentration (μg/m³),Mass concentration (μg/m³),Mass concentration (μg/m³)
DateTimeUTC,F1_M11,P_M11,Q1_M11,Q2_M11,T1_M11,T2_M11,T3_M11,T4_M11,T5_M11,U1_M11,ZSPAN_M11,X2_M11,X0_M11,X1_M11
2021-12-29 16:00:00,,0813.9,5.01,0.00,22.2,21.5,00.0,31.3,23.9,06.8,0000.0,0003.38,0009.83,0001.90
2021-12-29 16:01:00,,0813.9,4.99,0.00,22.2,21.5,00.0,31.3,23.9,06.9,0000.0,0003.38,0009.63,0001.88
2021-12-29 16:02:00,,0813.8,5.00,0.00,22.2,21.4,00.0,31.3,23.8,06.9,0000.0,0003.39,0010.35,0001.84
2021-12-29 16:03:00,,0813.9,5.00,0.00,22.2,21.3,00.0,31.2,23.8,07.0,0000.0,0003.39,0010.87,0001.80
2021-12-29 16:04:00,,0814.1,4.98,0.00,22.1,21.3,00.0,31.2,23.8,07.0,0000.0,0003.38,0011.05,0001.77
2021-12-29 16:05:00,,0814.2,5.02,0.00,22.1,21.3,00.0,31.2,23.8,06.9,0000.0,0003.36,0011.86,0001.74
2021-12-29 16:06:00,,0813.9,4.99,0.00,22.1,21.4,00.0,31.2,23.8,06.8,0000.0,0003.35,0012.64,0001.71
2021-12-29 16:07:00,,0814.0,5.00,0.00,22.1,21.4,00.0,31.2,23.8,06.8,0000.0,0003.35,0012.46,0001.69
2021-12-29 16:08:00,,0814.0,5.00,0.00,22.2,21.7,00.0,31.2,23.9,06.8,0000.0,0003.38,0012.09,0001.67
2021-12-29 16:09:00,,0814.3,5.00,0.00,22.3,22.7,00.0,31.2,24.1,06.8,0000.0,0003.37,0012.04,0001.66
2021-12-29 16:10:00,,0814.1,4.99,0.00,22.4,23.3,00.0,31.3,24.4,06.7,0000.0,0003.34,0012.62,0001.65
2021-12-29 16:11:00,,0814.0,5.01,0.00,22.5,23.0,00.0,31.3,24.4,06.6,0000.0,0003.35,0012.88,0001.64
2021-12-29 16:12:00,,0814.1,4.99,0.00,22.5,22.8,00.0,31.3,24.4,06.6,0000.0,0003.30,0013.05,0001.61
2021-12-29 16:13:00,,0814.0,5.00,0.00,22.5,22.5,00.0,31.3,24.3,06.7,0000.0,0003.24,0012.93,0001.57
2021-12-29 16:14:00,,0814.0,4.99,0.00,22.5,22.3,00.0,31.3,24.2,06.8,0000.0,0003.20,0012.20,0001.56
2021-12-29 16:15:00,,0814.4,5.01,0.00,22.4,22.1,00.0,31.3,24.1,06.9,0000.0,0003.13,0011.86,0001.54
2021-12-29 16:16:00,,0814.1,5.00,0.00,22.4,21.9,00.0,31.3,24.0,06.9,0000.0,0003.12,0010.97,0001.51
2021-12-29 16:17:00,,0814.1,4.99,0.00,22.3,21.8,00.0,31.3,23.9,06.9,0000.0,0003.14,0010.66,0001.50
2021-12-29 16:18:00,,0814.4,5.00,0.00,22.3,21.7,00.0,31.3,24.0,06.9,0000.0,0003.13,0010.99,0001.51
2021-12-29 16:19:00,,0814.1,5.00,0.00,22.3,21.7,00.0,31.3,24.0,06.8,0000.0,0003.11,0011.92,0001.52
2021-12-29 16:20:00,,0814.2,5.00,0.00,22.3,21.6,00.0,31.3,24.0,06.8,0000.0,0003.14,0012.72,0001.52
2021-12-29 16:21:00,,0814.2,5.01,0.00,22.3,21.6,00.0,31.3,23.9,06.9,0000.0,0003.19,0012.26,0001.53
2021-12-29 16:22:00,,0814.1,5.00,0.00,22.3,21.6,00.0,31.3,23.9,06.8,0000.0,0003.22,0012.40,0001.53
2021-12-29 16:23:00,,0814.2,4.99,0.00,22.3,21.6,00.0,31.3,24.0,06.8,0000.0,0003.24,0012.37,0001.54
2021-12-29 16:24:00,,0814.3,5.00,0.00,22.3,21.6,00.0,31.3,24.0,06.8,0000.0,0003.26,0012.04,0001.55
2021-12-29 16:25:00,,0814.2,5.00,0.00,22.3,21.6,00.0,31.3,24.0,06.9,0000.0,0003.28,0012.32,0001.55
2021-12-29 16:26:00,,0814.1,5.00,0.00,22.3,21.6,00.0,31.3,24.0,06.9,0000.0,0003.34,0012.48,0001.54
2021-12-29 16:27:00,,0814.1,5.01,0.00,22.3,21.6,00.0,31.3,24.0,06.9,0000.0,0003.32,0012.53,0001.54
2021-12-29 16:28:00,,0814.1,5.00,0.00,22.3,21.6,00.0,31.3,24.0,06.9,0000.0,0003.29,0012.21,0001.54
2021-12-29 16:29:00,,0814.4,5.01,0.00,22.3,21.6,00.0,31.3,24.0,06.9,0000.0,0003.32,0011.89,0001.54
2021-12-29 16:30:00,,0814.2,5.00,0.00,22.3,21.6,00.0,31.3,24.0,06.9,0000.0,0003.32,0011.77,0001.53
2021-12-29 16:31:00,,0814.1,5.00,0.00,22.3,21.5,00.0,31.3,24.0,06.9,0000.0,0003.36,0011.32,0001.53
2021-12-29 16:32:00,,0814.1,5.00,0.00,22.3,21.5,00.0,31.2,23.9,06.9,0000.0,0003.37,0011.59,0001.54
2021-12-29 16:33:00,,0814.2,5.00,0.00,22.3,22.2,00.0,31.3,24.1,06.9,0000.0,0003.33,0011.33,0001.53
2021-12-29 16:34:00,,0814.1,5.00,0.00,22.5,23.1,00.0,31.3,24.4,06.8,0000.0,0003.29,0011.26,0001.53
2021-12-29 16:35:00,,0814.3,4.99,0.00,22.6,23.5,00.0,31.4,24.6,06.8,0000.0,0003.33,0010.93,0001.55
2021-12-29 16:36:00,,0814.2,5.01,0.00,22.7,23.2,00.0,31.4,24.6,06.7,0000.0,0003.36,0011.14,0001.56
2021-12-29 16:37:00,,0814.3,5.01,0.00,22.7,22.9,00.0,31.4,24.5,06.7,0000.0,0003.34,0011.95,0001.56
2021-12-29 16:38:00,,0814.4,4.99,0.00,22.6,22.6,00.0,31.4,24.4,06.7,0000.0,0003.36,0012.39,0001.56
2021-12-29 16:39:00,,0814.3,5.01,0.00,22.6,22.4,00.0,31.4,24.4,06.8,0000.0,0003.35,0012.48,0001.56
2021-12-29 16:40:00,,0814.5,5.00,0.00,22.6,22.3,00.0,31.4,24.3,06.8,0000.0,0003.33,0012.67,0001.58
2021-12-29 16:41:00,,0814.4,5.01,0.00,22.6,22.1,00.0,31.5,24.3,06.8,0000.0,0003.31,0012.62,0001.59
2021-12-29 16:42:00,,0814.4,4.99,0.00,22.5,22.0,00.0,31.4,24.2,06.9,0000.0,0003.27,0012.76,0001.57
2021-12-29 16:43:00,,0814.3,4.99,0.00,22.5,21.8,00.0,31.4,24.1,06.9,0000.0,0003.26,0012.51,0001.57
2021-12-29 16:44:00,,0814.2,5.00,0.00,22.4,21.7,00.0,31.4,24.0,06.9,0000.0,0003.28,0012.91,0001.59
2021-12-29 16:45:00,,0814.3,5.00,0.00,22.4,21.6,00.0,31.4,24.0,07.0,0000.0,0003.33,0012.98,0001.60
2021-12-29 16:46:00,,0814.2,5.00,0.00,22.3,21.5,00.0,31.4,23.9,07.0,0000.0,0003.33,0013.37,0001.59
2021-12-29 16:47:00,,0814.1,5.00,0.00,22.3,21.5,00.0,31.4,23.9,07.0,0000.0,0003.31,0013.21,0001.59
2021-12-29 16:48:00,,0814.2,5.01,0.00,22.3,21.5,00.0,31.4,23.9,07.0,0000.0,0003.32,0013.37,0001.59
2021-12-29 16:49:00,,0814.6,4.98,0.00,22.3,21.5,00.0,31.3,23.9,07.0,0000.0,0003.32,0013.87,0001.60
2021-12-29 16:50:00,,0814.5,5.00,0.00,22.2,21.4,00.0,31.3,23.9,07.1,0000.0,0003.33,0014.12,0001.62
2021-12-29 16:51:00,,0814.3,4.99,0.00,22.2,21.4,00.0,31.3,23.8,07.1,0000.0,0003.36,0014.25,0001.61
2021-12-29 16:52:00,,0814.4,5.00,0.00,22.2,21.3,00.0,31.3,23.8,07.1,0000.0,0003.35,0013.64,0001.60
2021-12-29 16:53:00,,0814.6,5.01,0.00,22.1,21.3,00.0,31.3,23.7,07.1,0000.0,0003.41,0013.61,0001.63
2021-12-29 16:54:00,,0814.2,4.99,0.00,22.1,21.3,00.0,31.2,23.6,07.1,0000.0,0003.42,0013.25,0001.63
2021-12-29 16:55:00,,0814.2,4.99,0.00,22.0,21.2,00.0,31.2,23.6,07.2,0000.0,0003.38,0012.61,0001.62
2021-12-29 16:56:00,,0814.6,5.01,0.00,22.0,21.5,00.0,31.2,23.6,07.2,0000.0,0003.37,0012.64,0001.63
2021-12-29 16:57:00,,0814.2,5.00,0.00,22.2,22.4,00.0,31.2,23.9,07.2,0000.0,0003.36,0012.30,0001.63
2021-12-29 16:58:00,,0814.4,4.99,0.00,22.3,23.2,00.0,31.3,24.2,07.1,0000.0,0003.35,0012.87,0001.65
2021-12-29 16:59:00,,0814.5,4.99,0.00,22.4,23.2,00.0,31.3,24.4,07.1,0000.0,0003.38,0012.52,0001.71
